Location: Elma
(49.8670°N, 95.9170°W)
Time: 22:07:12
(UTC-05:00)

ISS - Pass Details

Date: 26 March 2019
Orbit: 408 x 410 km, 51.6° (Epoch: 21 April)

Event Time Altitude Azimuth Distance (km) Brightness Sun altitude
Rises 22:44:17 0° 279° (W) 2,337 0.9 -26.8°
Reaches altitude 10° 22:46:23 10° 283° (WNW) 1,475 -0.3 -27.1°
Enters shadow 22:47:30 19° 287° (WNW) 1,039 -1.1 -27.2°
